#timestamp,LO_Frequency,Hit,StdDev 
1627081215.6,286046999.8,P
1627081235.5,286046998.8,N
1627081255.3,286046999.2,N
1627081275.1,286046998.4,N
1627081295.9,286046998.5,N
1627081315.7,286046998.4,N
1627081335.5,286046999.3,N
1627081355.4,286046998.7,N
1627081375.2,286046998.9,N
1627081395.1,286047000.8,N
1627081396.0,286047000.8,N
1627081415.8,286047002.4,N
1627081435.6,286047002.3,N
1627081455.5,286047002.6,N
1627081475.3,286047004.0,N
1627081495.2,286047004.3,N
1627081515.0,286047001.9,N
1627081515.9,286047001.9,N
1627081535.8,286047001.3,N
1627081555.6,286047002.2,N
1627081575.4,286047001.5,N
1627081595.3,286046999.8,N
1627081615.1,286047000.3,N
1627081635.8,286047000.4,N
1627081655.7,286046998.3,N
1627081675.5,286046998.5,N
1627081695.3,286046998.7,N
1627081715.2,286046999.3,N
1627081735.0,286046999.0,N
1627081735.9,286046999.0,N
1627081755.8,286047000.0,N
1627081775.6,286047002.7,N
1627081795.4,286047002.2,N
1627081815.3,286046999.9,N
1627081835.1,286046999.9,N
1627081855.9,286046999.7,N
1627081875.7,286047002.5,N
1627081895.5,286046999.8,N
1627081915.4,286047004.3,N
1627081935.2,286047002.4,N
1627081955.0,286047002.4,N
1627081955.9,286047002.4,N
1627081975.8,286047000.6,N
1627081995.6,286047000.2,N
1627082015.5,286047000.0,N
1627082035.3,286047000.2,N
1627082055.1,286047000.8,N
1627082075.9,286046999.9,N
1627082095.7,286047002.7,N
1627082115.5,286047002.7,N
1627082135.4,286046999.7,N
1627082155.2,286047002.3,N
1627082175.1,286046999.7,N
1627082176.0,286046999.7,N
1627082195.8,286047002.5,N
1627082215.6,286047004.4,N
1627082235.5,286047001.8,N
1627082255.3,286047004.4,N
1627082275.1,286047002.7,N
1627082295.9,286047002.4,N
1627082315.7,286047002.5,N
1627082335.6,286047001.5,N
1627082355.4,286047001.5,N
1627082375.2,286047002.4,N
1627082395.1,286047000.9,N
1627082396.0,286047000.9,N
1627082415.8,286047000.0,N
1627082435.7,286047002.6,N
1627082455.5,286047002.5,N
1627082475.3,286047001.6,N
1627082495.2,286047002.6,N
1627082515.0,286047002.3,N
1627082515.9,286047002.3,N
1627082535.8,286047001.8,N
1627082555.6,286047004.2,Y
1627082575.4,286047002.2,P
1627082595.3,286047000.9,P
1627082615.1,286047002.3,P
1627082635.9,286047004.3,Y
1627082655.7,286047000.2,P
1627082675.5,286047002.3,N
1627082695.4,286047004.2,P
1627082715.2,286047003.2,N
1627082735.0,286047003.9,N
1627082736.0,286047003.9,N
1627082755.8,286047003.4,N
1627082775.6,286047003.6,N
1627082795.5,286047003.7,Y
1627082815.3,286046999.8,P
1627082835.2,286047000.0,N
1627082855.9,286046999.9,N
1627082875.7,286047000.9,N
1627082895.6,286047000.6,N
1627082915.4,286047000.6,N
1627082935.2,286046998.1,N
1627082955.1,286046998.3,N
1627082956.0,286046998.3,N
1627082975.8,286046999.3,N
1627082995.7,286046998.8,N
1627083015.5,286046999.2,N
1627083035.3,286046999.4,N
1627083055.2,286046998.9,N
1627083075.0,286047001.2,N
1627083075.9,286047001.2,N
1627083095.7,286046998.7,N
1627083115.6,286046999.3,N
1627083135.4,286046996.8,N
1627083155.3,286046996.9,N
1627083175.1,286046997.4,N
1627083195.8,286046997.5,N
1627083215.7,286046997.2,N
1627083235.5,286046995.7,N
1627083255.4,286046993.6,Y
1627083275.2,286046993.9,P
1627083295.0,286046992.2,P
1627083295.9,286046992.2,N
1627083315.8,286046994.8,N
1627083335.6,286046992.2,Y
1627083355.5,286046999.2,P
1627083375.3,286046999.5,N
1627083395.1,286046996.6,N
1627083415.9,286046998.6,N
1627083435.7,286046999.3,N
1627083455.5,286046998.1,N
1627083475.4,286047001.2,N
1627083495.2,286047001.1,N
1627083515.1,286047000.8,N
1627083516.0,286047000.8,N
1627083535.8,286046998.2,N
1627083555.6,286047001.2,N
1627083575.5,286047000.4,N
1627083595.3,286047000.5,N
1627083615.2,286047001.2,N
1627083635.9,286046999.8,N
1627083655.7,286047000.0,N
1627083675.6,286046998.5,N
1627083695.4,286047000.3,N
1627083715.2,286047000.0,N
1627083735.1,286047000.3,N
1627083736.0,286047000.3,N
1627083755.8,286046998.1,N
1627083775.7,286047000.8,N
1627083795.5,286046998.1,N
1627083815.3,286046998.2,N
1627083835.2,286047000.7,N
1627083855.0,286047000.7,N
1627083855.9,286047000.7,N
1627083875.8,286046998.5,N
1627083895.8,286046998.9,N
1627083915.7,286046998.2,N
1627083935.5,286047000.4,N
1627083955.3,286047000.6,N
1627083975.2,286047011.9,Y
1627083995.0,286047001.2,P
1627083995.9,286047001.2,N
1627084015.7,286046998.6,N
1627084035.6,286047002.5,N
1627084055.4,286046999.7,N
1627084075.3,286047002.5,N
1627084095.1,286046999.7,N
1627084096.0,286046999.7,N
1627084115.8,286047001.9,N
1627084135.7,286047002.5,N
1627084155.5,286047002.7,N
1627084175.3,286047002.8,N
1627084195.2,286047001.0,N
1627084215.0,286047000.7,N
1627084215.9,286047000.7,N
1627084235.8,286047000.5,N
1627084255.6,286047000.7,N
1627084275.4,286046999.9,N
1627084295.3,286047001.1,N
1627084315.1,286047000.6,N
1627084335.8,286047001.2,N
1627084355.7,286046998.4,N
1627084375.5,286047000.9,N
1627084395.4,286047000.4,N
1627084415.2,286046999.9,N
1627084435.0,286047001.0,N
1627084435.9,286047001.0,N
1627084455.8,286047000.0,N
1627084475.6,286046998.5,N
1627084495.4,286047000.6,N
1627084515.3,286047000.2,N
1627084535.1,286047000.5,N
1627084555.9,286047002.7,N
1627084575.7,286047002.6,N
1627084595.5,286047002.6,N
1627084615.4,286047002.0,N
1627084635.2,286047002.4,N
1627084655.0,286047001.6,N
1627084655.9,286047001.6,N
1627084675.8,286047002.1,N
1627084695.6,286047002.3,N
1627084715.5,286047002.8,N
1627084735.3,286047002.4,N
1627084755.1,286047001.9,N
1627084775.9,286047003.9,Y
1627084795.7,286047001.8,P
